Погода в Правовосточном

Россия / Амурская область     50°19′37″N   128°11′25″E
темп.,
°C
ветер,
м/с
пор.,
м/с
влажн.,
%
обл.,
%
осадки,
мм/ч
давл.,
гПа
погр.,
м
12 мая, ср
ср1200:00+10юв81669100 0.0 1010499
03:00+8юв91779100 0.0 1008517
06:00+8юв112078100 0.0 1004630
09:00+8юв122187100 6.1 1002930
12:00+12юв12187387 0.6 9991261
15:00+14ююв81162100 1.9 9981399
18:00+12вюв81268100 1.1 9961288
21:00+10ююв71189100 4.1 997706
13 мая, чт
чт1300:00+9ююв4884100 3.2 997422
03:00+9ююз4790100 3.8 997337
06:00+9юз4790100 0.6 998366
09:00+9з5890100 2.3 1000531
12:00+9з6982100 0.4 1002998
15:00+9зсз71087100 1.6 1004946
18:00+10зсз598396 0.4 1006860
21:00+7зсз35914 0.4 100899
14 мая, пт
пт1400:00+6ссз119278 0.0 100910
03:00+6ю11915 0.0 100910
06:00+6юв3691100 0.0 1008137
09:00+10юв71379100 0.0 1006442
12:00+14юв81367100 0.0 1003602
15:00+11в6995100 9.0 1001240
18:00+12юз4595100 4.8 1002216
21:00+9юз5994100 7.1 1001316
15 мая, сб
сб1500:00+9ююз4894100 0.0 1000180
03:00+7зюз37920 0.0 1000147
06:00+7зюз37860 0.0 1000226
09:00+11з796246 0.0 10001403
12:00+10з61067100 0.1 10001460
15:00+12сз7106283 0.5 10001327
18:00+9зсз71176100 0.2 10021341
21:00+9зсз51283100 0.6 1003759
16 мая, вс
вс1600:00+7з4119095 0.1 1004323
03:00+9зсз5118197 0.4 1003508
06:00+7зсз6128311 0.0 1004635
09:00+11сз696981 0.0 10051168
12:00+14сз695297 0.0 10051904
15:00+18сз69415 0.0 10042209
18:00+18ссз35455 0.0 1003346
21:00+13юв336297 0.0 100431